Resoconti di bolidi

Jul 22, 2019 - Aug 22, 2019
Trovati resoconti: 2697  negli ultimi 30 giorni  Pagina 4 / 54
IDDate e tempo T.U. (Tempo Universale)Data e tempo localeRegioneCittàStatoDur.MagnitudineSuono differitoSuono contemporaneoFrag.OsservatoreLivello di esperienza
Evento 3842-2019
3842ap2019-08-17 19:25 UT2019-08-17 21:25 CESTFR BeauxAuvergne-Rhône-Alpes≈1,5s -14--ClémentineP 1
3842aq2019-08-17 19:32 UT2019-08-17 21:32 CESTFR Saint-RestitutAuvergne-Rhône-Alpes≈1,5s -6--?JeanG 2
3842ar2019-08-17 19:45 UT2019-08-17 21:45 CESTFR BédoinProvence-Alpes-Côte d'Azur≈1,5s -10---NathanC 2
3842as2019-08-17 19:25 UT2019-08-17 21:25 CESTCH Gambarogno TITessin≈3,5s -20-?-Christine D 1
3842at2019-08-17 19:26 UT2019-08-17 21:26 CESTFR Saint-Michel-l'ObservatoireProvence-Alpes-Côte d'Azur≈1,5s -7---olivierL 5
3842au2019-08-17 19:15 UT2019-08-17 21:15 CESTCH LocarnoTicino≈3,5s -13---MartinF 3
3842av2019-08-17 19:27 UT2019-08-17 21:27 CESTFR VillefranconBourgogne-Franche-Comté≈7,5s -14---SD 1
3842aw2019-08-17 19:24 UT2019-08-17 21:24 CESTFR ChadronAuvergne-Rhône-Alpes≈1,5s -16--DenisB 4
3842ax2019-08-17 19:30 UT2019-08-17 21:30 CESTIT ComoLombardia≈1,5s -14--?AnnalisaM 2
3842ay2019-08-17 19:30 UT2019-08-17 21:30 CESTFR BeauneBourgogne-Franche-Comté≈3,5s -27--?Sébastien H 1
3842az2019-08-17 19:20 UT2019-08-17 21:20 CESTIT MilanoLombardia≈3,5s -6??-ElenaO 1
3842b2019-08-17 20:13 UT2019-08-17 22:13 CESTCH AttalensFribourg≈1,5s -13--?MaximeR 4
3842ba2019-08-17 21:47 UT2019-08-17 21:47 ?FR IssiracOccitanie? -5---GabyN 1
3842bb2019-08-17 19:30 UT2019-08-17 21:30 CESTIT Ponna SuperioreLombardia≈1,5s -13---FabioC 2
3842bc2019-08-17 19:30 UT2019-08-17 21:30 CESTFR CarrosProvence-Alpes-Côte d'Azur≈3,5s -21--Emmanuel S 2
3842bd2019-08-17 19:26 UT2019-08-17 21:26 CESTFR BellefondBourgogne-Franche-Comté≈1,5s -13--?Loïc C 4
3842be2019-08-17 19:35 UT2019-08-17 21:35 CESTFR BussetAuvergne-Rhône-Alpes≈1,5s -5?-?KorsV 3
3842bf2019-08-17 19:25 UT2019-08-17 21:25 CESTFR Savigny-le-SecBourgogne-Franche-Comté≈3,5s -13-?Marie-PierreM 1
3842bg2019-08-17 19:30 UT2019-08-17 21:30 CESTIT Esino LarioLombardia≈1,5s -17--?GianniP 1
3842bh2019-08-17 19:25 UT2019-08-17 21:25 CESTIT Lombardia≈3,5s -6??-MilzM 1
3842bi2019-08-17 19:15 UT2019-08-17 21:15 CESTFR La BouilladisseProvence-Alpes-Côte d'Azur≈1,5s -4--?GillesS 2
3842bj2019-08-17 19:30 UT2019-08-17 21:30 CESTFR Sainte-MaximeProvence-Alpes-Côte d'Azur≈1,5s -16?--GabinR 1
3842bk2019-08-17 19:25 UT2019-08-17 21:25 CESTIT Lombardy≈3,5s -10---ANDREAB 2
3842bl2019-08-17 19:27 UT2019-08-17 21:27 CESTFR Blot-l'ÉgliseAuvergne-Rhône-Alpes≈1,5s -8??PierreF 2
3842bm2019-08-17 19:30 UT2019-08-17 21:30 CESTFR Cuges-les-PinsProvence-Alpes-Côte d'Azur≈3,5s -13---SophieM 1
3842bn2019-08-17 19:25 UT2019-08-17 21:25 CESTFR NébouzatAuvergne-Rhône-Alpes<1s -27---PascaleR 1
3842bo2019-08-17 19:27 UT2019-08-17 21:27 CESTIT MonegliaLiguria≈1,5s -10---Francesco C 2
3842bp2019-08-17 19:25 UT2019-08-17 21:25 CESTIT BresciaLombardia≈7,5s -9---AlessiaG 1
3842bq2019-08-17 19:30 UT2019-08-17 21:30 CESTFR Salles-CuranOccitanie≈1,5s -13---CécileP 2
3842br2019-08-17 19:25 UT2019-08-17 21:25 CESTIT Veneto≈1,5s -11---LucaS 2
3842bs2019-08-17 19:25 UT2019-08-17 21:25 CESTFR MensignacNouvelle-Aquitaine≈1,5s -15--?CécileH 1
3842bt2019-08-17 19:26 UT2019-08-17 21:26 CESTFR BordeauxNouvelle-Aquitaine≈1,5s -14---jean-lucV 3
3842bu2019-08-17 18:50 UT2019-08-17 20:50 CESTFR MontélimarAuvergne-Rhône-Alpes≈3,5s 0??-IsaB 1
3842bv2019-08-17 19:15 UT2019-08-17 21:15 CESTFR BesançonBourgogne-Franche-Comté? -7???MargauxG 1
3842bw2019-08-17 19:20 UT2019-08-17 21:20 CESTFR Saint-Michel-l'ObservatoireProvence-Alpes-Côte d'Azur≈1,5s -20--?AurélienC 1
3842bx2019-08-17 19:20 UT2019-08-17 21:20 CESTFR Bons-en-ChablaisAuvergne-Rhône-Alpes≈3,5s -23---KatiaD 1
3842by2019-08-17 19:30 UT2019-08-17 21:30 CESTFR CouxAuvergne-Rhône-Alpes≈3,5s -8--MathieuM 3
3842bz2019-08-17 19:25 UT2019-08-17 21:25 CESTFR DoussardAuvergne-Rhône-Alpes≈3,5s -13--?MarieT 2
3842c2019-08-17 20:05 UT2019-08-17 22:05 CESTFR Ubaye-Serre-PonçonProvence-Alpes-Côte d'Azur≈3,5s -18---Sophie S 1
3842ca2019-08-17 19:45 UT2019-08-17 21:45 CESTFR L'Argentière-la-BesséeProvence-Alpes-Côte d'Azur<1s -13---guyG 3
3842cb2019-08-17 20:05 UT2019-08-17 22:05 CESTIT Toscana≈3,5s -22---DeboraP 1
3842cc2019-08-17 19:26 UT2019-08-17 21:26 CESTFR VernassalAuvergne-Rhône-Alpes≈1,5s -9---TimothéeF 4
3842cd2019-08-17 19:26 UT2019-08-17 21:26 CESTFR ConcoulesOccitanie≈1,5s -10--NicolasL 5
3842ce2019-08-17 19:30 UT2019-08-17 21:30 CESTIT SormanoLombardia≈7,5s -8--?AlessandroF 5
3842cf2019-08-17 19:20 UT2019-08-17 21:20 CESTFR Dommartin-lès-RemiremontGrand Est≈3,5s -5---MaximeP 1
3842cg2019-08-17 19:26 UT2019-08-17 21:26 CESTFR Savas-MépinAuvergne-Rhône-Alpes≈1,5s -13???YannickS 1
3842ch2019-08-17 19:30 UT2019-08-17 21:30 CESTIT CogneAosta≈1,5s -15---Emanuele M 3
3842ci2019-08-17 19:30 UT2019-08-17 21:30 CESTFR YouxAuvergne-Rhône-Alpes≈1,5s -20---RégisT 2
3842cj2019-08-17 19:26 UT2019-08-17 21:26 CESTFR PeypinProvence-Alpes-Côte d'Azur≈1,5s -7???Jean-MarieM 2
3842ck2019-08-17 19:00 UT2019-08-17 21:00 CESTFR Les Ollières-sur-EyrieuxAuvergne-Rhône-Alpes<1s -20--LaurentG 2